Temp
54 47 42 47 49 51 51 48 47 49 60 56 55 53 62 63 66 65 66 66 67 66 65 63 62 61 60 59 59 57 56 55 59 57 55 53 53 54 55 57 57 57 57 57
48 43 53 56 54 53 51 48 48 53 59 57 51 55 57 62 63 65 65 64 65 63 59 59 58 60 60 57 56 56 56 55 56 58 54 55 57 54 55 55 55 56 56 55
44 51 59 56 53 52 50 49 48 50 57 54 52 49 52 60 61 66 67 66 66 64 57 57 57 56 55 54 55 55 55 56 57 58 59 59 58 54 53 52 52 53 54 54
48 57 56 54 52 54 47 56 56 53 48 41 50 38 49 56 59 61 63 62 62 64 58 58 56 54 54 54 55 56 57 58 61 61 59 57 55 52 51 51 50 51 53 52
48 51 51 50 53 57 51 57 55 54 45 42 44 40 46 55 52 56 58 59 58 64 59 57 57 57 56 55 56 57 59 60 60 58 59 57 54 51 50 51 50 49 50 51
52 57 55 53 59 57 60 53 50 46 43 35 45 43 40 47 56 59 59 60 61 60 60 61 60 58 55 55 55 57 58 59 56 57 56 56 53 52 50 49 48 47 47 48
47 50 53 59 52 54 52 43 33 33 32 34 48 42 46 55 60 64 63 62 61 62 63 63 57 56 54 53 54 55 58 57 56 54 55 54 54 53 51 50 48 47 46 45
38 37 50 57 52 49 48 46 32 29 28 33 47 38 48 59 63 66 68 66 64 64 64 63 58 56 55 54 54 55 55 55 54 53 53 55 55 53 52 51 49 48 48 46
36 40 53 56 56 54 47 43 48 39 38 34 37 45 56 59 61 61 63 65 62 64 62 61 60 57 56 55 55 55 55 54 53 53 53 53 53 53 50 50 49 49 48 50
39 33 49 54 55 54 50 53 40 37 31 29 35 38 43 51 54 58 59 61 63 63 61 62 62 58 58 57 57 56 55 53 51 51 53 53 51 51 51 51 49 49 48 48
38 36 39 49 45 43 44 42 43 43 38 34 31 38 50 52 54 55 58 62 64 62 62 63 62 59 59 58 56 53 54 52 51 50 49 50 49 50 51 50 49 49 48 47
39 34 30 39 49 51 48 43 43 33 33 36 35 40 56 54 55 55 57 61 64 62 62 63 60 59 57 56 53 54 54 52 51 49 48 48 48 49 48 48 48 48 48 48
37 31 25 33 40 42 40 42 43 42 39 35 29 33 56 57 57 58 56 60 64 66 64 62 59 56 55 54 54 54 53 53 51 51 49 47 47 48 47 47 48 48 47 47
39 33 30 24 30 36 32 37 41 40 32 32 34 39 47 52 52 55 55 55 60 63 62 60 57 55 55 54 54 53 53 52 51 51 50 47 47 47 47 47 47 47 47 46
31 25 29 31 34 37 35 35 37 36 39 33 38 38 46 49 48 51 52 52 56 58 60 58 54 53 53 53 54 55 53 52 52 50 49 47 47 47 47 46 46 46 46 45
30 22 27 26 34 35 32 35 35 36 38 40 41 40 48 50 51 49 48 48 49 57 59 57 55 54 53 54 54 54 53 52 52 50 49 48 47 48 47 46 45 45 44 43
27 25 23 20 28 28 20 30 34 37 40 39 33 42 46 46 48 44 43 45 44 49 54 57 57 56 55 56 56 53 53 52 51 50 49 48 48 48 46 46 45 44 42 40
27 26 25 19 23 -1 30 39 38 36 41 40 41 39 39 39 44 45 45 43 45 45 50 53 61 59 57 57 57 54 54 51 50 49 49 49 48 47 47 46 44 42 42 39
32 27 19 10 18 24 30 35 35 33 31 34 35 37 38 40 42 44 45 46 45 46 47 52 57 62 59 57 57 54 53 51 50 49 49 49 48 47 46 45 43 43 42 40
34 31 23 20 13 6 29 35 39 41 25 34 35 36 36 37 26 35 44 45 45 47 47 50 56 61 58 57 57 53 52 51 49 49 50 50 49 48 46 45 44 44 43 42
23 24 17 19 16 23 31 36 37 24 23 33 36 36 35 32 35 41 46 45 45 46 47 52 56 58 58 58 55 52 51 50 51 51 50 49 49 48 47 45 45 43 43 42
20 13 15 19 11 14 37 35 25 31 34 36 37 38 37 40 41 42 44 45 44 44 46 49 50 52 55 57 55 52 51 53 52 51 49 48 48 48 47 45 44 43 42 39
17 22 18 19 21 33 36 34 40 39 38 39 40 40 40 39 41 43 43 44 42 44 45 48 47 51 53 56 56 53 53 53 51 50 48 47 48 48 47 45 43 42 41 39
27 30 22 24 30 33 35 39 40 42 39 40 40 39 39 37 40 42 44 43 42 42 44 46 45 47 51 55 57 56 55 54 50 48 47 47 47 46 46 47 45 43 41 39
25 26 25 24 28 31 34 37 39 40 42 41 41 40 39 39 40 42 42 44 44 40 43 44 44 46 48 51 57 56 55 53 50 49 48 47 47 45 46 46 45 44 44 43
27 24 21 19 30 29 31 36 39 38 37 40 40 39 40 40 40 41 42 44 45 41 39 42 43 45 47 49 55 56 56 52 50 48 47 46 46 45 46 42 35 36 39 39
MSLP
1008.13 1008.98 1009.47 1009.41 1009.61 1009.61 1009.42 1009.06 1008.58 1007.45 1005.99 1006.34 1006.56 1006.99 1007.10 1007.57 1007.95 1008.56 1009.13 1009.51 1009.82 1010.47 1011.49 1012.33 1012.74 1013.45 1014.27 1015.21 1015.75 1016.23 1016.68 1017.25 1017.26 1017.96 1018.72 1019.22 1019.66 1019.94 1020.11 1020.12 1020.28 1020.33 1020.37 1020.58
1008.98 1009.06 1008.63 1008.85 1009.21 1009.36 1009.21 1009.05 1008.36 1007.65 1006.60 1006.55 1006.61 1006.96 1007.41 1007.44 1006.89 1007.00 1008.06 1008.99 1009.79 1010.74 1011.77 1012.43 1013.09 1013.72 1014.41 1015.12 1015.57 1016.18 1016.59 1017.03 1017.25 1017.76 1018.39 1018.89 1019.60 1020.10 1020.34 1020.55 1020.75 1020.89 1020.88 1021.08
1008.78 1008.25 1008.17 1008.66 1008.54 1008.88 1008.45 1008.36 1008.31 1007.96 1007.12 1006.51 1006.69 1006.81 1007.04 1007.33 1007.46 1007.01 1007.15 1008.06 1008.83 1009.73 1011.46 1012.66 1013.51 1014.23 1014.86 1015.32 1015.55 1015.95 1016.52 1017.03 1017.31 1017.76 1018.39 1019.00 1019.70 1020.36 1020.76 1021.00 1021.21 1021.46 1021.38 1021.49
1008.25 1007.55 1007.73 1008.00 1007.97 1007.78 1007.84 1007.22 1007.31 1007.66 1007.91 1008.05 1007.51 1007.44 1007.13 1006.62 1007.12 1007.48 1007.45 1008.03 1008.92 1009.70 1011.19 1012.21 1013.36 1014.19 1014.57 1014.94 1015.30 1015.65 1016.38 1016.84 1017.33 1017.62 1018.09 1018.50 1019.12 1020.20 1020.85 1021.13 1021.49 1021.77 1021.77 1021.97
1007.35 1006.92 1007.05 1007.02 1006.95 1006.83 1006.87 1006.52 1006.93 1007.37 1008.09 1008.55 1008.40 1008.64 1006.68 1006.56 1007.19 1006.84 1007.46 1008.06 1008.80 1009.53 1010.34 1011.36 1011.90 1012.48 1013.24 1013.99 1014.58 1015.26 1016.06 1016.57 1016.97 1017.40 1017.75 1018.40 1019.15 1019.98 1020.88 1021.27 1021.66 1022.16 1022.26 1022.35
1007.20 1006.45 1006.36 1006.09 1005.92 1006.12 1006.16 1006.43 1007.16 1007.76 1008.69 1009.22 1008.16 1008.37 1007.06 1006.61 1005.75 1006.16 1006.64 1007.22 1008.17 1009.03 1009.83 1010.21 1010.82 1011.85 1012.81 1013.56 1014.28 1014.80 1015.54 1016.32 1016.80 1017.20 1017.61 1018.11 1018.89 1019.80 1020.80 1021.32 1021.82 1022.33 1022.64 1022.84
1007.62 1006.89 1006.19 1005.89 1005.98 1005.84 1006.26 1007.05 1008.59 1009.27 1009.76 1008.75 1007.95 1008.45 1006.66 1005.51 1004.99 1004.88 1005.22 1006.03 1006.87 1007.69 1008.48 1009.28 1010.49 1011.62 1012.67 1013.23 1013.80 1014.43 1015.08 1016.13 1016.66 1017.09 1017.36 1017.89 1018.62 1019.33 1020.35 1020.91 1021.62 1022.37 1022.77 1023.15
1008.71 1007.64 1006.32 1005.48 1005.59 1005.88 1006.26 1007.31 1008.54 1009.45 1009.90 1008.96 1008.36 1007.72 1005.13 1004.39 1004.06 1004.19 1004.51 1004.67 1005.12 1006.03 1007.00 1008.33 1009.40 1010.63 1011.60 1012.65 1013.24 1014.07 1015.01 1015.79 1016.45 1017.08 1017.59 1018.05 1018.44 1019.28 1020.10 1020.72 1021.41 1022.28 1022.66 1023.09
1010.42 1008.64 1006.85 1005.84 1005.61 1005.96 1006.13 1006.85 1007.50 1008.79 1009.48 1009.49 1008.75 1007.00 1005.01 1004.21 1003.90 1004.15 1004.38 1004.92 1005.61 1005.72 1006.44 1007.25 1008.18 1009.20 1010.41 1011.42 1012.00 1012.67 1014.08 1015.39 1016.22 1016.90 1017.45 1018.18 1018.49 1019.15 1019.87 1020.82 1021.41 1022.01 1022.57 1022.92
1012.47 1010.87 1008.39 1006.70 1005.92 1006.15 1006.31 1006.69 1007.95 1008.91 1009.53 1009.46 1008.57 1007.41 1005.00 1004.46 1004.33 1004.08 1004.10 1004.17 1004.22 1004.81 1005.48 1006.02 1006.83 1007.97 1008.99 1010.05 1011.11 1011.99 1012.99 1014.36 1015.79 1016.76 1017.20 1017.86 1018.52 1019.09 1019.75 1020.57 1021.47 1022.13 1022.39 1022.97
1014.02 1012.72 1010.47 1008.59 1007.67 1008.03 1007.78 1008.23 1008.61 1008.83 1008.85 1008.84 1008.67 1006.52 1004.75 1004.96 1004.38 1004.31 1003.96 1003.48 1003.44 1004.38 1005.20 1005.45 1006.31 1007.69 1008.83 1010.03 1011.41 1012.42 1013.29 1014.56 1015.50 1016.49 1017.45 1018.12 1018.82 1019.33 1019.96 1020.67 1021.44 1022.13 1022.64 1023.28
1015.43 1014.42 1012.82 1010.85 1009.24 1009.22 1009.31 1010.55 1010.39 1010.58 1010.13 1009.63 1008.65 1005.71 1005.04 1005.11 1004.97 1004.83 1004.38 1004.01 1003.62 1003.91 1004.48 1005.65 1006.98 1008.02 1009.04 1010.06 1011.39 1012.00 1012.89 1013.89 1015.14 1016.39 1017.29 1018.51 1019.16 1019.60 1020.33 1021.08 1021.55 1022.01 1022.83 1023.38
1016.87 1015.72 1014.64 1012.35 1011.15 1011.13 1011.47 1012.21 1012.27 1011.61 1011.24 1010.47 1009.77 1007.52 1006.13 1006.30 1005.89 1005.52 1005.50 1004.79 1003.72 1002.69 1003.33 1004.93 1006.48 1007.67 1008.36 1009.58 1010.89 1012.09 1013.00 1013.87 1014.83 1015.75 1016.90 1018.15 1019.13 1019.66 1020.40 1021.08 1021.73 1022.25 1022.85 1023.43
1017.64 1017.31 1016.66 1015.92 1015.17 1014.54 1013.77 1013.63 1013.48 1012.99 1012.28 1011.56 1010.29 1008.80 1008.09 1007.41 1007.08 1006.75 1006.30 1005.40 1004.35 1003.09 1002.87 1004.59 1006.50 1007.66 1008.88 1010.29 1010.81 1011.33 1012.89 1013.87 1014.65 1015.70 1016.79 1017.70 1018.78 1019.39 1020.17 1021.01 1021.69 1022.28 1022.84 1023.43
1020.16 1019.31 1018.37 1017.58 1016.72 1015.66 1014.57 1014.12 1014.24 1013.87 1013.23 1012.65 1010.62 1009.85 1009.25 1008.86 1008.97 1008.70 1008.16 1006.70 1004.72 1003.50 1003.58 1004.43 1005.96 1007.41 1008.65 1009.46 1010.88 1012.40 1012.80 1013.70 1014.79 1015.42 1016.52 1017.41 1018.32 1019.14 1020.05 1020.88 1021.59 1022.38 1023.17 1023.72
1021.23 1020.50 1019.47 1018.19 1017.41 1016.54 1015.41 1014.18 1014.23 1014.07 1013.49 1012.64 1011.71 1009.82 1010.02 1009.57 1009.50 1009.49 1009.38 1008.61 1007.50 1006.38 1004.47 1005.69 1006.76 1007.25 1007.70 1008.72 1009.83 1011.18 1012.38 1013.59 1014.73 1015.87 1016.54 1017.40 1018.25 1019.10 1020.20 1020.87 1021.63 1022.50 1023.42 1024.10
1021.81 1021.35 1020.60 1019.06 1018.43 1017.53 1016.07 1014.52 1013.55 1013.01 1012.98 1012.64 1012.09 1011.38 1011.04 1010.81 1010.77 1010.85 1010.81 1010.57 1010.37 1009.46 1008.27 1006.61 1005.60 1006.59 1007.73 1007.91 1008.50 1010.21 1011.15 1012.54 1014.04 1015.42 1016.42 1017.25 1017.90 1018.96 1019.99 1020.84 1021.70 1022.58 1023.44 1024.24
1021.33 1021.53 1021.38 1020.47 1019.79 1018.28 1015.13 1014.34 1013.98 1013.46 1013.22 1013.23 1012.78 1012.90 1013.17 1012.78 1011.99 1011.96 1012.05 1011.97 1011.30 1011.08 1009.90 1008.56 1006.97 1004.82 1005.68 1007.03 1008.06 1008.97 1010.17 1011.60 1013.10 1014.61 1015.89 1016.73 1017.55 1018.50 1019.43 1020.46 1021.61 1022.60 1023.37 1024.20
1020.46 1021.29 1021.54 1021.04 1019.97 1017.78 1015.57 1014.49 1014.24 1014.11 1014.58 1014.95 1014.52 1014.12 1013.82 1013.14 1011.63 1011.96 1012.42 1012.42 1012.31 1011.40 1010.37 1008.38 1006.10 1004.83 1004.92 1006.18 1007.40 1008.80 1009.92 1011.14 1012.67 1013.90 1015.03 1016.08 1017.16 1018.18 1019.17 1020.08 1021.18 1022.16 1023.10 1024.15
1020.42 1020.43 1020.79 1021.00 1020.28 1018.25 1016.30 1015.31 1015.00 1014.14 1015.31 1016.23 1015.91 1015.31 1014.89 1014.34 1013.86 1014.25 1013.42 1012.76 1011.77 1011.15 1009.95 1007.15 1004.19 1004.22 1005.28 1006.01 1006.93 1008.45 1009.59 1010.81 1011.79 1012.90 1014.03 1015.43 1016.50 1017.37 1018.57 1019.86 1020.84 1021.82 1022.77 1023.77
1020.69 1020.75 1021.03 1020.92 1019.89 1018.42 1017.96 1016.96 1015.41 1015.53 1017.48 1016.93 1016.58 1016.13 1015.84 1015.63 1015.64 1015.00 1014.02 1012.99 1012.39 1011.16 1010.14 1007.65 1004.43 1003.80 1004.21 1005.12 1006.51 1007.89 1008.87 1009.60 1010.82 1012.11 1013.52 1014.99 1016.25 1017.01 1018.07 1019.33 1020.58 1021.66 1022.54 1023.50
1021.39 1021.40 1020.86 1019.98 1019.09 1018.70 1017.86 1016.89 1017.09 1017.54 1017.51 1016.60 1016.33 1015.94 1015.63 1015.37 1015.06 1014.74 1014.13 1013.32 1012.66 1011.54 1010.72 1009.63 1008.30 1007.18 1006.82 1005.66 1006.43 1007.31 1008.32 1009.05 1010.52 1012.01 1013.40 1014.59 1015.65 1016.77 1017.99 1018.97 1020.06 1021.24 1022.26 1023.21
1021.53 1021.18 1020.64 1020.27 1018.81 1017.75 1018.37 1017.94 1017.44 1017.04 1017.03 1016.16 1015.81 1015.57 1015.31 1015.10 1014.76 1014.47 1013.80 1013.29 1013.23 1012.54 1011.86 1011.05 1010.09 1008.63 1007.75 1007.66 1007.86 1006.97 1008.13 1009.04 1010.22 1011.64 1013.00 1013.94 1015.03 1016.12 1017.51 1018.61 1019.65 1020.63 1021.67 1022.73
1020.29 1020.05 1019.60 1019.58 1018.36 1018.14 1017.55 1017.57 1017.06 1016.44 1016.32 1016.03 1015.73 1015.49 1015.19 1014.86 1014.28 1013.92 1013.51 1013.15 1013.12 1013.18 1012.54 1011.74 1010.58 1009.80 1008.42 1007.80 1007.71 1008.13 1008.35 1009.12 1009.89 1011.00 1012.51 1013.63 1014.66 1015.61 1016.67 1018.05 1018.99 1019.92 1020.83 1021.82
1019.37 1019.32 1018.94 1018.37 1018.20 1017.82 1016.99 1016.59 1016.14 1015.84 1015.67 1015.41 1015.15 1014.99 1014.71 1014.34 1013.93 1013.44 1013.10 1012.81 1012.77 1012.93 1012.65 1012.06 1011.44 1010.29 1009.39 1008.43 1007.25 1007.75 1008.30 1008.69 1009.81 1010.77 1012.07 1013.17 1014.50 1015.43 1016.43 1017.20 1018.16 1019.15 1020.11 1020.47
1018.35 1018.05 1018.21 1017.33 1017.34 1017.37 1016.33 1016.29 1015.82 1015.23 1014.95 1014.83 1014.59 1014.28 1014.00 1013.79 1013.39 1012.96 1012.54 1012.36 1012.10 1012.35 1012.11 1012.40 1011.65 1010.90 1009.62 1008.72 1007.20 1007.00 1007.73 1008.39 1009.02 1010.09 1011.52 1012.56 1013.87 1015.09 1016.07 1017.10 1018.77 1019.29 1019.97 1020.60
Wind_Speed
3 4 6 12 9 6 4 4 7 6 12 1 3 4 21 21 24 20 19 18 19 18 13 13 14 16 15 11 12 10 11 7 10 6 5 4 4 3 4 4 6 6 6 6
1 7 12 9 5 6 8 9 12 9 9 5 3 7 10 18 23 25 21 16 16 15 15 14 14 11 11 13 10 9 9 7 6 6 3 4 5 3 4 4 5 5 6 6
8 8 7 7 9 7 9 11 6 9 10 6 4 4 6 9 4 14 15 15 18 23 19 15 13 11 11 11 12 11 9 7 6 7 6 7 7 4 4 3 4 4 6 6
7 12 13 9 8 8 11 8 7 5 3 4 4 6 5 10 15 11 14 15 14 17 16 15 14 13 13 10 9 10 10 10 8 10 10 14 8 8 3 3 4 4 6 6
9 4 4 6 8 7 9 8 7 6 4 3 2 1 8 12 8 11 9 8 8 15 19 18 18 18 15 14 13 11 11 10 9 9 12 9 9 6 5 5 8 6 5 6
9 4 3 5 5 3 6 3 5 5 5 1 9 8 6 7 16 15 10 15 15 15 16 19 16 14 13 11 11 13 13 11 8 10 10 11 13 13 9 7 7 5 4 4
4 6 4 5 6 4 4 5 2 3 0 11 5 4 10 7 10 18 19 18 17 21 21 20 18 16 13 15 14 11 14 12 10 8 9 12 14 14 13 11 8 8 5 3
5 6 7 4 9 8 7 9 8 8 5 5 4 7 11 8 7 16 15 19 24 24 20 20 18 17 17 16 15 14 14 12 10 8 8 11 14 9 9 9 9 6 6 5
5 4 7 2 2 6 4 7 10 5 2 2 4 7 13 6 8 7 10 11 16 20 20 21 20 19 18 18 20 20 17 11 9 9 10 11 11 12 11 11 9 7 7 6
6 5 5 5 2 3 3 4 2 2 6 7 4 4 13 6 8 7 6 10 19 22 23 22 21 21 20 20 18 18 18 16 11 9 11 10 9 11 13 12 11 10 8 7
8 2 7 6 3 5 7 6 4 1 5 9 7 12 7 9 10 9 11 8 15 18 18 21 19 16 16 16 15 15 16 14 12 9 6 10 9 11 12 12 11 10 9 8
3 3 3 5 12 6 3 8 5 3 5 3 4 12 4 6 6 6 9 8 5 14 20 19 17 17 17 17 16 18 15 17 14 10 10 8 9 11 11 11 10 10 10 8
6 3 4 5 1 7 7 11 10 5 2 1 2 6 14 13 16 13 11 17 14 10 21 17 17 18 19 18 17 16 15 15 14 14 14 11 10 11 11 11 11 10 10 9
7 2 1 2 4 7 5 10 7 6 1 4 8 8 14 16 13 19 20 21 20 8 18 17 14 14 13 11 13 17 15 14 15 14 14 14 12 12 11 10 10 11 10 10
5 4 6 8 10 11 13 11 4 7 9 5 10 15 10 9 12 14 16 22 27 9 17 17 16 14 15 16 16 13 13 15 14 16 15 14 12 12 12 12 11 10 10 10
4 5 8 8 7 8 14 16 10 10 13 14 15 21 2 5 10 14 18 22 24 15 14 10 11 15 20 19 17 17 16 15 15 13 14 13 14 13 12 11 11 11 10 10
3 2 3 4 9 9 9 11 13 8 7 8 10 13 12 9 8 12 16 17 20 21 18 9 20 19 18 22 23 20 18 17 17 15 14 14 15 14 13 12 12 12 12 11
5 4 3 5 7 3 4 11 10 10 6 11 10 13 13 13 12 9 14 16 17 21 21 20 16 17 18 20 20 20 21 20 19 17 16 16 16 16 15 13 12 11 11 11
13 8 4 2 5 11 13 6 3 4 3 14 13 14 15 17 9 5 21 19 16 19 22 19 21 19 19 22 20 19 19 20 19 18 18 18 17 16 15 14 14 13 12 11
4 4 9 4 4 6 4 15 17 8 1 12 12 13 15 16 8 9 20 19 20 20 24 27 21 13 17 18 20 20 21 20 20 20 19 17 17 18 17 15 14 11 12 12
6 6 6 9 9 5 10 16 16 4 3 11 12 10 10 6 1 8 15 17 17 18 28 30 14 14 19 21 21 21 22 22 20 18 18 18 17 16 16 15 12 11 12 12
8 2 3 4 4 11 17 7 7 4 4 7 4 6 6 8 7 10 13 16 17 20 24 26 22 16 4 17 21 21 21 19 18 17 18 18 17 14 13 16 13 13 12 12
9 7 3 2 3 14 5 5 9 6 8 9 3 6 6 7 10 13 14 13 15 17 17 18 19 17 12 8 14 19 17 18 19 19 19 18 18 17 16 16 15 12 12 11
7 10 8 8 3 11 15 13 15 5 5 7 3 4 7 7 12 13 14 9 10 13 15 15 18 19 15 8 14 12 16 18 20 20 19 17 17 16 16 13 12 12 12 11
8 2 7 14 14 15 18 17 6 12 16 10 7 7 8 7 12 14 11 13 7 8 13 13 14 16 18 20 12 13 17 19 19 18 16 16 14 15 15 13 13 12 12 13
10 15 11 14 17 15 20 15 18 16 10 16 17 13 9 11 12 11 10 10 10 5 9 14 14 15 19 19 13 15 18 20 20 18 15 14 13 12 12 11 5 9 10 14
Wind_Direction
226 123 202 219 210 206 254 263 264 278 280 337 238 164 174 181 180 181 186 180 168 158 143 132 127 128 123 127 128 132 131 142 132 122 115 92 107 96 74 73 74 67 74 66
346 212 224 222 208 216 240 239 265 291 271 168 246 242 193 190 184 176 180 172 159 141 145 142 136 140 148 148 140 137 141 145 132 130 120 123 134 102 104 95 77 76 79 80
188 233 198 219 250 225 243 232 234 225 287 287 250 249 154 218 253 198 176 173 169 156 156 153 153 149 141 154 157 154 154 156 147 132 126 112 102 76 92 86 83 69 81 81
222 237 242 230 235 218 256 215 205 182 102 249 76 282 229 187 201 206 186 173 169 160 150 152 158 161 164 167 155 151 163 167 173 156 146 154 147 144 140 135 113 95 87 84
233 186 208 229 210 194 227 227 198 178 144 138 240 136 268 161 203 198 189 192 172 174 163 169 173 173 175 160 161 165 165 169 168 163 157 152 138 121 128 123 112 106 87 87
230 272 185 217 254 187 235 194 56 58 107 182 222 159 274 189 209 199 178 180 186 176 181 185 181 162 164 160 158 157 165 176 168 164 159 154 147 144 143 138 127 122 106 94
302 261 242 195 284 333 119 65 13 325 124 231 125 112 242 222 224 196 193 191 181 185 190 183 168 168 161 164 164 163 165 180 181 170 161 152 151 148 150 144 139 136 126 113
205 307 186 207 183 204 199 159 161 198 203 271 116 206 242 222 215 209 221 199 192 196 188 185 171 167 167 173 166 167 176 180 181 175 162 158 153 150 151 145 141 137 133 138
357 251 325 27 41 146 246 201 181 175 181 31 231 293 297 257 275 204 224 204 209 197 186 187 178 173 169 172 174 169 172 173 168 167 156 163 154 150 148 143 138 139 135 136
348 291 299 314 23 33 125 222 142 4 185 240 236 219 239 337 303 300 292 224 202 197 195 192 180 177 176 175 171 166 163 158 151 151 158 156 149 143 142 142 143 146 139 127
7 7 306 342 68 48 359 22 358 212 166 215 241 249 221 235 251 247 278 248 203 199 205 198 192 175 167 163 163 157 150 147 144 139 128 138 140 138 140 141 143 140 131 137
343 300 280 265 299 306 41 38 43 74 303 299 215 245 307 327 299 291 278 277 215 184 194 194 187 175 171 164 162 160 156 151 148 139 129 132 135 135 135 142 142 136 139 137
330 336 326 319 24 19 46 37 13 309 348 282 205 263 3 357 346 357 346 331 300 239 197 182 172 179 173 164 161 161 158 154 148 143 142 140 144 141 141 143 142 139 137 135
8 281 25 282 337 312 301 338 355 336 265 321 261 323 343 335 352 353 350 345 325 246 165 174 171 173 166 165 160 154 157 157 153 150 153 149 151 148 146 143 143 143 140 131
36 285 11 321 309 304 298 292 290 273 278 264 292 306 308 348 10 356 352 352 337 183 168 166 160 160 160 157 160 167 160 159 161 156 157 156 147 145 146 146 141 136 137 127
6 297 320 294 252 263 277 285 288 258 257 247 261 282 75 323 28 21 5 4 360 349 167 150 152 160 163 162 165 167 166 165 161 163 160 152 150 146 155 148 140 137 130 126
229 241 325 278 10 325 292 251 249 260 249 240 253 277 15 350 19 50 15 6 357 349 344 201 166 171 183 181 169 173 167 157 163 165 160 159 156 156 156 152 144 144 139 132
210 203 253 293 330 317 243 333 323 303 331 12 348 22 15 345 310 76 23 0 354 346 329 311 261 191 183 178 177 161 164 164 162 164 166 163 162 161 159 154 151 147 145 143
202 212 248 212 233 287 297 276 1 21 8 18 1 11 9 348 305 91 3 352 344 340 318 307 293 210 176 177 174 167 164 162 164 168 168 168 167 161 159 159 157 154 147 146
118 279 188 181 230 248 5 358 346 293 187 2 3 5 5 13 27 340 334 334 336 344 332 326 298 182 181 175 167 166 168 171 171 171 171 169 165 162 164 161 161 158 150 150
315 317 253 241 237 264 14 339 322 241 37 337 335 331 339 355 244 306 328 340 338 346 341 347 336 173 181 170 169 175 171 177 175 166 161 164 168 163 160 152 157 152 152 148
284 269 246 253 234 234 8 8 16 328 277 248 282 304 303 315 331 340 335 339 351 348 348 348 355 354 268 179 173 174 184 170 160 160 160 162 160 160 158 157 154 158 150 145
249 215 253 252 291 310 348 317 306 207 275 308 260 299 328 315 338 336 332 338 352 341 341 340 343 338 339 205 205 177 176 164 159 160 164 161 160 162 164 164 164 159 158 154
242 230 242 286 271 267 306 306 289 313 298 296 294 324 317 309 326 329 328 327 347 337 339 333 340 337 337 295 208 198 172 166 161 161 164 163 167 165 165 168 171 169 171 164
213 197 273 271 280 275 261 270 266 302 298 284 300 290 282 299 307 306 312 322 335 329 335 336 327 328 337 335 221 185 179 163 165 162 163 164 169 167 170 172 176 178 182 176
211 232 241 259 273 270 274 274 277 269 274 287 288 281 267 276 277 285 302 312 317 306 329 332 319 323 324 325 282 182 181 171 164 162 166 169 166 169 170 160 110 54 155 158